Location: Peebles
(55.6412°N, 3.1714°W)
Time: 16:57:04
(UTC+01:00)

USA 281 - Pass Details

Date: 29 January 2022
Orbit: 1070 x 1089 km, 106.0° (Epoch: 25 March)

Event Time Altitude Azimuth Distance (km) Brightness Sun altitude
Rises 04:19:56 0° 32° (NNE) 3,904 6.8 -32.3°
Reaches altitude 10° 04:22:40 10° 24° (NNE) 2,947 5.9 -31.9°
Enters shadow 04:27:20 33° 343° (NNW) 1,763 4.2 -31.3°
